User: anonymous
Location: Caltech
(34.1382°N, 118.1253°W)
Time: 02:35:13
(UTC-07:00)
Language:

Gurwin Techsat 1B - Orbit

View from above orbital plane
View from above orbital plane
View from above satellite
View from above satellite

Ground track
Ground track

The orbit data is extracted from the following two-line orbital elements,

1 25397U 98043D   14106.46146108  .00000114  00000-0  68577-4 0  3236
2 25397 098.4625 066.7734 0002444 117.1338 030.8725 14.23431245819083
Epoch (UTC): 16 April 2014 11:04:30
Eccentricity: 0.0002444
inclination: 98.4625°
perigee height: 812 km
apogee height: 815 km
right ascension of ascending node: 66.7734°
argument of perigee: 117.1338°
revolutions per day: 14.23431245
mean anomaly at epoch: 30.8725°
orbit number at epoch: 81908

The dashed part of the orbit path shows where the satellite is in the earth's shadow,  

DLR